RH
63 59 59 61 64 62 55 53 55 60 57 52 46 34 24 18 17 31 56 60 60 58 55 54 60 62 60 49 36 28 20 17
57 57 58 58 58 55 51 45 43 41 44 46 44 40 31 31 46 63 64 63 60 54 54 57 60 52 51 48 44 44 39 33
40 49 52 54 54 51 50 45 40 47 52 52 50 45 34 41 63 68 64 57 48 41 35 32 23 31 29 32 35 32 32 36
38 35 39 42 47 48 50 50 45 40 40 46 37 41 53 68 73 68 56 48 43 37 32 15 13 18 24 28 35 49 65 60
38 40 42 43 39 48 48 50 52 47 42 39 50 55 75 72 69 63 56 57 57 51 36 22 22 19 18 24 38 52 64 47
39 41 42 45 46 48 51 49 50 53 49 45 62 77 68 71 66 62 55 55 62 60 39 32 40 33 27 28 29 34 44 52
36 36 38 44 48 50 51 52 56 54 53 44 61 60 66 68 62 60 65 70 68 65 37 36 37 32 30 32 43 47 51 59
42 42 43 44 47 49 52 53 55 61 57 61 62 46 63 71 64 72 82 80 75 73 50 40 41 37 37 41 52 58 64 69
44 46 46 47 54 58 54 56 63 65 67 71 67 74 78 81 75 92 89 89 89 83 73 52 49 49 48 50 54 55 67 74
45 44 49 52 51 54 61 63 64 63 73 71 96 97 95 86 89 98 87 92 96 91 81 80 78 79 81 78 74 74 74 73
48 50 53 60 61 63 65 67 67 77 77 90 92 91 86 89 85 83 90 88 90 96 99 98 99 99 96 94 93 90 88 86
53 55 55 58 59 63 69 72 74 76 81 87 87 85 78 79 84 88 92 86 85 86 84 81 81 80 74 80 88 89 92 94
60 60 61 62 64 63 64 68 72 74 76 77 75 74 70 70 61 56 52 48 43 44 46 50 57 66 72 74 74 86 80 95
51 50 51 50 45 39 38 41 45 45 42 42 44 48 46 36 27 22 20 21 22 26 30 38 42 46 55 64 70 80 92 85
51 56 57 54 57 61 59 53 45 38 32 27 22 21 21 22 23 24 25 28 32 30 30 34 49 55 64 71 72 67 70 78
50 54 59 62 62 60 56 48 32 28 26 25 29 28 23 22 23 26 29 46 47 50 49 72 59 59 66 70 79 82 85 86
53 56 61 64 61 53 38 31 40 35 36 38 31 24 26 29 43 40 43 43 43 54 70 59 70 74 74 69 69 69 67 66
56 61 65 65 59 46 25 40 39 40 43 44 36 30 32 39 37 40 50 47 45 45 46 77 78 77 77 82 69 80 84 84
59 63 65 60 48 33 26 37 40 44 49 46 34 32 38 42 41 46 50 51 48 50 72 75 78 84 75 70 90 92 76 74
Wind_Speed
13 8 5 4 5 5 5 5 4 4 3 3 4 0 4 4 4 6 12 16 18 23 27 25 22 23 21 19 20 18 20 21
8 4 3 5 5 5 4 4 6 6 5 5 2 2 2 3 6 11 14 16 21 24 26 26 24 19 19 18 20 22 21 22
7 6 4 4 5 5 4 2 2 4 4 5 5 5 2 2 9 14 16 19 23 25 26 24 19 17 16 14 14 16 15 15
9 11 8 7 6 7 6 3 3 3 4 6 5 3 1 9 11 11 15 21 24 25 27 23 18 17 17 18 17 18 19 15
7 8 7 10 10 8 8 9 7 7 6 3 3 2 8 7 8 10 14 19 25 27 26 19 18 19 18 18 18 17 17 18
11 6 8 8 9 8 8 9 10 9 8 7 5 6 3 5 8 12 18 26 29 30 23 21 21 20 19 19 18 19 19 20
11 9 7 6 7 9 12 12 10 7 11 8 8 5 5 9 14 17 22 23 27 27 21 21 22 23 22 21 21 21 20 19
20 15 13 11 8 11 13 13 13 8 6 8 8 9 12 15 18 19 22 22 29 32 23 22 21 22 22 22 23 24 24 24
17 15 10 8 15 6 12 11 8 9 7 8 8 8 13 15 23 19 22 29 26 28 28 26 25 24 24 24 24 25 26 26
14 10 8 7 6 9 3 3 3 10 5 1 1 7 11 19 19 23 25 21 23 27 25 26 27 27 28 28 28 29 29 29
13 11 11 13 12 16 14 7 6 11 7 5 4 10 16 19 22 23 20 18 19 19 20 22 23 22 25 27 28 29 32 34
15 14 11 10 8 7 7 6 7 5 3 7 12 17 20 23 22 19 20 21 24 26 29 31 32 33 35 35 35 36 34 32
12 8 6 5 6 5 3 3 4 6 9 13 17 19 21 21 23 24 26 27 28 28 29 30 30 30 31 31 32 32 36 39
8 3 4 6 6 6 6 6 7 9 12 15 17 21 23 23 25 25 26 27 27 28 29 30 32 32 33 33 30 27 29 34
11 7 3 4 5 7 9 11 14 16 17 18 18 19 21 23 25 26 27 28 29 31 32 32 31 31 30 29 32 34 35 33
8 4 4 2 2 4 9 13 16 16 16 16 18 20 22 24 26 28 29 29 31 32 31 29 34 32 29 30 31 33 37 40
8 5 2 3 5 10 13 12 14 17 17 19 20 22 24 25 26 30 30 32 33 31 30 36 32 30 29 33 37 42 44 45
8 6 3 5 9 12 10 10 13 16 18 20 22 24 26 27 30 31 30 34 35 37 35 31 31 35 38 36 41 38 40 38
10 8 5 6 9 13 8 7 11 14 16 22 24 26 26 29 32 30 32 34 39 36 34 35 38 38 42 42 34 38 43 44
Wind_Direction
107 108 104 105 115 129 128 139 151 171 168 178 196 155 48 67 50 14 22 18 5 357 348 336 321 318 315 317 318 321 325 322
117 107 49 77 89 91 91 115 144 163 174 213 249 316 349 342 65 18 3 8 1 355 348 338 325 316 313 309 310 312 315 321
87 90 72 44 45 46 59 117 183 192 221 256 287 297 290 51 358 3 0 2 7 3 355 346 334 317 311 309 319 321 319 318
63 48 36 28 23 19 0 360 307 284 257 250 236 206 20 354 352 357 6 11 7 360 348 335 336 336 333 331 333 330 331 340
79 31 15 9 2 357 342 327 322 308 290 253 249 314 329 333 350 359 3 4 358 348 338 334 340 340 335 329 323 316 314 317
69 32 3 335 326 320 312 305 311 321 297 261 229 292 310 334 345 351 352 351 348 340 325 322 330 334 332 327 320 310 304 301
64 46 4 324 286 276 286 287 284 321 330 273 275 284 312 339 356 352 351 345 340 334 322 326 328 330 329 326 321 319 313 306
82 71 58 30 306 281 262 260 275 277 321 319 303 294 319 334 335 338 342 328 327 327 312 314 317 322 324 323 318 317 315 309
78 70 59 37 37 313 284 258 268 304 279 289 316 330 326 329 331 329 324 321 311 310 307 309 314 315 316 317 314 313 310 305
71 49 42 25 350 3 270 188 319 313 272 82 202 335 328 321 316 322 329 331 316 318 317 320 319 319 321 321 314 310 308 303
72 64 60 67 73 95 131 131 93 120 128 179 283 307 310 312 312 315 322 318 309 311 312 312 309 309 309 308 305 303 301 301
94 84 73 72 81 91 103 89 92 130 206 272 290 301 311 314 314 313 311 305 307 306 304 300 300 302 300 298 296 295 295 296
104 90 80 52 43 47 25 346 318 318 310 308 306 308 308 310 313 315 315 315 313 313 313 309 311 314 314 315 314 310 308 297
107 97 47 25 33 26 10 352 336 321 313 314 314 318 322 325 324 326 327 327 327 325 322 321 319 315 310 310 316 313 307 303
115 115 66 44 40 12 350 339 333 330 327 325 327 330 334 335 335 337 339 337 334 330 328 326 327 325 322 325 317 310 308 308
141 126 106 71 356 333 327 331 331 339 342 341 342 338 339 341 340 337 337 334 331 328 331 325 323 326 327 323 317 312 309 306
149 148 197 288 311 330 339 344 343 342 345 341 341 340 341 341 337 335 334 333 332 337 328 324 331 327 321 315 308 309 307 307
163 170 182 282 310 328 342 346 339 339 336 334 339 339 339 338 335 334 337 334 332 330 331 335 326 316 321 316 318 313 311 308
192 209 236 279 298 322 339 345 341 332 323 330 334 336 336 333 334 337 333 328 327 331 330 322 319 319 319 321 320 313 314 311